• Processing (Info)

  • MPEC 2006-W17 : 2006 WB

    The following Minor Planet Electronic Circular may be linked-to from your own Web pages, but must not otherwise be redistributed electronically.

    A form allowing access to any MPEC is at the bottom of this page.


    Read MPEC 2006-W16 Read MPEC 2006-W18


    M.P.E.C. 2006-W17                                Issued 2006 Nov. 17, 18:46 UT
    
         The Minor Planet Electronic Circulars contain information on unusual
             minor planets and routine data on comets.  They are published
       on behalf of Commission 20 of the International Astronomical Union by the
              Minor Planet Center, Smithsonian Astrophysical Observatory,
                              Cambridge, MA 02138, U.S.A.
    
                 Prepared using the Tamkin Foundation Computer Network
    
                                  MPC@CFA.HARVARD.EDU
              URL http://cfa-www.harvard.edu/iau/mpc.html  ISSN 1523-6714
    
                                        2006 WB
    
    Observations:
         K06W00B* C2006 11 16.40836 08 37 33.92 +02 32 17.2          18.5 V EW017703
         K06W00B  C2006 11 16.42105 08 37 36.01 +02 32 45.7          18.6 V EW017703
         K06W00B  C2006 11 16.44638 08 37 40.04 +02 33 42.6          18.7 V EW017703
         K06W00B  C2006 11 16.53648 08 37 53.85 +02 37 03.4          18.4 V EW017703
         K06W00B  C2006 11 16.53719 08 37 54.00 +02 37 05.6          18.2 V EW017703
         K06W00B  C2006 11 16.53859 08 37 54.29 +02 37 07.9          18.6 V EW017703
         K06W00B  C2006 11 16.69398 08 38 38.52 +02 43 18.5          20.0 V EW017D35
         K06W00B  C2006 11 16.69543 08 38 38.97 +02 43 22.6          19.5 V EW017D35
         K06W00B HC2006 11 17.11370 08 40 03.98 +02 58 32.8                 EW017246
         K06W00B HC2006 11 17.11487 08 40 04.17 +02 58 35.9                 EW017246
         K06W00B  C2006 11 17.11808 08 40 04.74 +02 58 44.3                 EW017246
         K06W00B  C2006 11 17.47635 08 41 23.69 +03 13 31.4          18.1 R EW017H36
         K06W00B  C2006 11 17.48601 08 41 25.36 +03 13 55.7          17.7 R EW017H36
         K06W00B  C2006 11 17.49001 08 41 26.00 +03 14 03.5          18.1 R EW017H36
         K06W00B  C2006 11 17.51117 08 41 32.17 +03 15 14.3          18.6 V EW017G96
         K06W00B  C2006 11 17.51558 08 41 32.92 +03 15 25.1          18.5 V EW017G96
         K06W00B  C2006 11 17.51988 08 41 33.64 +03 15 35.8          18.6 V EW017G96
         K06W00B  C2006 11 17.52421 08 41 34.36 +03 15 46.5          18.7 V EW017G96
    
    Observer details:
    246 Klet Observatory-KLENOT.  Observers J. Ticha, M. Tichy.  Measurer M. Tichy.
        1.06-m KLENOT Telescope + CCD.
    703 Catalina Sky Survey.  Observer A. R. Gibbs.  Measurers E. C. Beshore,
        E. J. Christensen, G. J. Garradd, A. R. Gibbs, A. D. Grauer, R. E. Hill,
        R. A. Kowalski, S. M. Larson, R. H. McNaught.  0.68-m Schmidt + CCD.
    D35 Lulin Observatory.  Observers H.-C. Lin, C.-S. Lin, M.-T. Chang, Q.-z. Ye.
        Measurer Q.-z. Ye.  0.41-m f/8.8 Ritchey-Chretien + 2Kx2K CCD.
    G96 Mt. Lemmon Survey.  Observer S. M. Larson.  Measurers E. C. Beshore,
        E. J. Christensen, G. J. Garradd, A. R. Gibbs, A. D. Grauer, R. E. Hill,
        R. A. Kowalski, S. M. Larson, R. H. McNaught.  1.5-m reflector + CCD.
    H36 Sandlot Observatory, Scranton.  Observer G. Hug.  0.30-m
        Schmidt-Cassegrain + CCD.
    
    Orbital elements:
    2006 WB                                                  Earth MOID = 0.0047 AU
    Epoch 2006 Sept. 22.0 TT = JDT 2454000.5                MPC
    M 123.18501              (2000.0)            P               Q
    n   1.25916832     Peri.  161.81040     -0.67544890     +0.73306655
    a   0.8493373      Node    65.61538     -0.68698240     -0.58618384
    e   0.1821505      Incl.    5.03206     -0.26799993     -0.34496656
    P   0.78           H   22.5           G   0.15           U   9
    Residuals in seconds of arc
    061116 703  0.6-  0.4-    061116 D35  1.0-  0.5-    061117 H36  0.0   0.2+
    061116 703  0.2-  0.3-    061116 D35  1.7+  0.2+    061117 H36  0.7-  1.8-
    061116 703  0.2-  0.1+    061117 246  0.6-  0.1-    061117 G96  0.0   0.1+
    061116 703  0.8-  0.3-    061117 246  0.8-  0.2+    061117 G96  0.2+  0.0
    061116 703  0.2-  0.4+    061117 246  0.8-  0.9+    061117 G96  0.1+  0.1+
    061116 703  0.9+  0.5-    061117 H36  0.0   0.4-    061117 G96  0.0   0.1+
    
    Ephemeris:
    2006 WB                  a,e,i = 0.85, 0.18, 5                   q = 0.6946
    Date    TT    R. A. (2000) Decl.     Delta      r     Elong.  Phase     V
    2006 11 11    08 21.67   -00 03.2    0.0648   1.003   100.0    76.4    19.2
    2006 11 13    08 26.86   +00 46.3    0.0600   1.003   100.9    75.7    19.0
    2006 11 15    08 32.76   +01 45.2    0.0551   1.002   101.7    75.2    18.8
    2006 11 17    08 39.60   +02 56.1    0.0503   1.001   102.4    74.8    18.6
    2006 11 19    08 47.67   +04 23.0    0.0455   1.000   102.9    74.5    18.4
    2006 11 21    08 57.44   +06 10.9    0.0408   0.998   103.2    74.5    18.2
    2006 11 23    09 09.58   +08 27.2    0.0362   0.996   103.1    74.9    17.9
    2006 11 25    09 25.20   +11 21.9    0.0317   0.994   102.4    75.8    17.6
    2006 11 27    09 46.03   +15 08.5    0.0275   0.992   100.9    77.6    17.4
    2006 11 29    10 14.93   +20 01.0    0.0237   0.990    98.0    80.6    17.2
    2006 12 01    10 56.39   +26 03.1    0.0206   0.987    93.3    85.5    17.0
    2006 12 03    11 55.99   +32 34.5    0.0185   0.985    86.2    92.7    17.1
    2006 12 05    13 15.01   +37 34.8    0.0178   0.982    77.5   101.5    17.4
    2006 12 07    14 40.43   +38 54.6    0.0186   0.979    68.9   110.1    18.0
    2006 12 09    15 52.30   +36 54.3    0.0209   0.975    61.9   117.0    18.7
    2006 12 11    16 43.93   +33 32.5    0.0241   0.972    56.9   121.9    19.3
    
    Kyle E. Smalley              (C) Copyright 2006 MPC           M.P.E.C. 2006-W17
    

    Read MPEC 2006-W16 Read MPEC 2006-W18


    MPEC number:

    Enter an MPEC number in one of the following forms:

    • 1997-B01 (the full form)
    • J97B01 (the packed version of the full form)
    • B01 (the abbreviated form)